STARLINK-35230

Satellite information

Favourite Embed

Satellite Type and Status

PAYLOADIN ORBIT

Key statistics

Satellite STARLINK-35230 at a glance.

Uptime

29

Days in orbit

Revolutions

≈ 15.4

Per day

Orbit

LEO

Low Earth Orbit

Inclination

53.2

Latest

Satellite identification and parameters

Extended collection of information and parameters for STARLINK-35230.

Object identification

Identified? True

Debris? False

Object name: STARLINK-35230

International designator: 2025-212F

Object number (NORAD): 65681

Object ID (CCSDS): 65681

Country: UNITED STATES OF AMERICA (US)

Current information (Y/N): Y

Orbital parameters

Period: 93.43 minutes

Inclination: 53.1594 deg

SMA: 6820.532 km

Apoapsis: 443.314 km

Periapsis: 441.48 km

RAAN: 279.2686 deg

Eccentricy: 0.00013439

Argument of periapsis: 96.6492 deg

Mean anomaly: 197.6839 deg

Mean motion: 15.41258164 rev/day

Mean motion (dot): -0.02043229 rev/day2

B* drag term: -0.054448368 1/REarth

Two-line elements (TLE)

Creation date: Oct. 20, 2025, 2:10 a.m.

Reference frame: TEME

Reference center: EARTH

Epoch: Oct. 20, 2025, midnight UTC

TLE line 0: 0 STARLINK-35230

TLE line 1: 1 65681U 25212F 25293.00001157 -.02043229 00000-0 -54448-1 0 9993

TLE line 2: 2 65681 53.1594 279.2686 0001344 96.6492 197.6839 15.41258164 5794

Live tracking on map

Real-time ground track for satellite STARLINK-35230.

In-orbit conjunctions

There are no conjunctions computed for STARLINK-35230, at the moment. Check back to stay up to date, as we update our databases every day.

Go to all conjunctions

Associated space launch

A batch of 28 satellites for the Starlink mega-constellation - SpaceX's project for space-based Internet communication system.

STARLINK-35230 was lifted into orbit during the mission ‘Falcon 9 Block 5 | Starlink Group 10-27’, on board a Falcon 9 space rocket.

The launch took place on Sept. 21, 2025, 10:53 a.m. from Space Launch Complex 40.

For more information about the launch, click the button.

Launch to space Falcon 9 Block 5 | Starlink Group 10-27
Falcon 9 Block 5 | Starlink Group 10-27

Agency: SpaceX

Status: Launch Successful

Launch date: Sept. 21, 2025, 10:53 a.m. UTC

Rocket: Falcon 9

Launch pad: Space Launch Complex 40

Location: Cape Canaveral SFS, FL, USA

...

Latest news about this satellite

News about space launch
Live coverage: SpaceX to launch 28 Starlink satellites on Falcon 9 rocket from Cape Canaveral

The Starlink 10-27 mission will be the 280th orbital launch for SpaceX from Cape Canaveral Space Force Station. Liftoff from Space Launch Complex 40 is scheduled for 6:53 a.m. EDT (1053 UTC).

News about space launch
Launch Roundup: Starlink, NRO, and New Shepard missions scheduled

Another busy week of launches has arrived, with SpaceX dominating the launch manifest with four… The post Launch Roundup: Starlink, NRO, and New Shepard missions scheduled appeared first on NASASpaceFlight.com.


Newsletter sign-up

Weekly statistics, charts and insights to help you stay on top of the space industry.